sat.trackr.live / text

‹ back to catalog

STARLINK-5900

NORAD 55948 · 2023-037AL

PAYLOAD ACTIVE UNKNOWN

§ Identity

Operator
Country
US
Launch date
2023-03-17
Launch site
AFWTR
Launch vehicle
Mass (kg)
RCS (m²)

Purposes: comms

External: N2YO · Heavens-Above · Gunter

§ Orbital elements

Epoch: 2026-09-20T01:11:43.381824Z

Period
96.11 min
Inclination
69.9989°
Eccentricity
0.0002913
Mean motion
14.98328303 rev/d
Perigee alt
570.0 km
Apogee alt
574.1 km
Semi-major
6,950.2 km
B*
2.6873e-5
RAAN
134.5222°
Arg perigee
269.7824°
Mean anomaly
90.3001°
Rev number
19,358

§ Raw data

STARLINK-59001 55948U 23037AL  26263.04980766  .00000228  00000+0  26873-4 0  99962 55948  69.9989 134.5222 0002913 269.7824  90.3001 14.98328303193585

JSON: /api/v1/satellites/55948 · /tle

For live sub-satellite position, see the globe view (requires WebGL).

§ Visibility from observer

Set your observer location to see the next 7 days of passes ≥ 10°. The values pass through the URL so the page stays shareable.

No JS? Fill the form by hand. The geolocation button needs JavaScript.